QPF
0.06 0.05 0.07 0.12 0.19 0.19 0.18 0.13 0.08 0.08 0.04 0.01 0.00 0.01 0.03 0.05 0.09 0.12 0.10 0.06 0.03 0.03 0.03 0.03 0.03 0.03 0.03 0.03 0.04 0.05 0.04 0.04 0.03 0.02 0.02 0.01 0.02 0.01 0.02 0.02 0.02 0.03 0.03 0.03 0.03 0.02 0.02 0.03 0.02
0.05 0.07 0.09 0.15 0.19 0.18 0.17 0.11 0.08 0.07 0.05 0.02 0.01 0.01 0.01 0.01 0.02 0.04 0.07 0.06 0.01 0.01 0.03 0.03 0.03 0.03 0.03 0.03 0.02 0.02 0.02 0.02 0.01 0.01 0.01 0.01 0.01 0.01 0.01 0.01 0.01 0.03 0.03 0.03 0.03 0.03 0.02 0.02 0.02
0.08 0.08 0.14 0.18 0.17 0.16 0.15 0.09 0.06 0.04 0.03 0.01 0.01 0.01 0.01 0.02 0.02 0.03 0.05 0.02 0.01 0.02 0.04 0.04 0.03 0.02 0.02 0.02 0.01 0.01 0.01 0.01 0.01 0.01 0.01 0.01 0.01 0.01 0.01 0.01 0.01 0.02 0.03 0.04 0.04 0.05 0.03 0.02 0.01
0.11 0.14 0.16 0.19 0.16 0.11 0.08 0.04 0.03 0.02 0.02 0.01 0.00 0.01 0.01 0.02 0.01 0.01 0.01 0.00 0.01 0.03 0.05 0.04 0.02 0.02 0.02 0.02 0.02 0.01 0.01 0.00 0.01 0.01 0.00 0.00 0.00 0.00 0.00 0.01 0.01 0.01 0.02 0.02 0.03 0.04 0.03 0.02 0.02
0.13 0.16 0.18 0.19 0.14 0.08 0.02 0.01 0.01 0.02 0.02 0.01 0.01 0.02 0.04 0.03 0.00 0.00 0.00 0.00 0.01 0.03 0.03 0.02 0.02 0.02 0.02 0.02 0.02 0.01 0.00 0.00 0.00 0.00 0.00 0.00 0.00 0.00 0.00 0.01 0.01 0.01 0.01 0.01 0.02 0.02 0.02 0.02 0.02
0.16 0.15 0.18 0.18 0.15 0.09 0.03 0.01 0.02 0.02 0.02 0.01 0.01 0.04 0.09 0.05 0.01 0.00 0.01 0.01 0.01 0.02 0.01 0.01 0.01 0.01 0.01 0.01 0.01 0.01 0.01 0.01 0.01 0.01 0.00 0.00 0.00 0.00 0.00 0.00 0.00 0.01 0.01 0.01 0.01 0.01 0.01 0.01 0.02
0.16 0.16 0.16 0.14 0.16 0.13 0.04 0.00 0.01 0.02 0.03 0.03 0.01 0.04 0.08 0.08 0.03 0.00 0.00 0.00 0.00 0.01 0.01 0.01 0.00 0.00 0.01 0.02 0.02 0.02 0.02 0.01 0.01 0.00 0.00 0.00 0.00 0.00 0.00 0.00 0.00 0.01 0.02 0.01 0.01 0.01 0.01 0.01 0.01
0.11 0.14 0.14 0.14 0.17 0.15 0.03 0.01 0.01 0.02 0.03 0.02 0.01 0.04 0.06 0.04 0.01 0.00 0.00 0.00 0.01 0.01 0.01 0.00 0.00 0.01 0.02 0.01 0.02 0.02 0.02 0.00 0.00 0.00 0.00 0.00 0.00 0.00 0.00 0.00 0.00 0.01 0.01 0.01 0.02 0.02 0.02 0.02 0.01
0.06 0.16 0.19 0.16 0.14 0.10 0.01 0.01 0.01 0.01 0.02 0.02 0.02 0.02 0.03 0.01 0.00 0.01 0.02 0.02 0.03 0.02 0.01 0.01 0.00 0.00 0.01 0.01 0.00 0.00 0.00 0.00 0.00 0.00 0.00 0.00 0.00 0.00 0.00 0.00 0.00 0.01 0.01 0.02 0.02 0.02 0.03 0.03 0.02
0.08 0.17 0.17 0.08 0.03 0.02 0.01 0.01 0.01 0.02 0.04 0.03 0.03 0.02 0.01 0.00 0.01 0.01 0.01 0.02 0.03 0.02 0.00 0.00 0.00 0.00 0.00 0.00 0.00 0.00 0.00 0.00 0.00 0.00 0.00 0.00 0.00 0.00 0.00 0.00 0.00 0.00 0.00 0.01 0.01 0.02 0.03 0.03 0.03
0.07 0.13 0.08 0.03 0.01 0.01 0.01 0.01 0.00 0.03 0.04 0.02 0.02 0.03 0.02 0.01 0.01 0.01 0.01 0.00 0.01 0.01 0.00 0.00 0.00 0.00 0.00 0.00 0.00 0.00 0.00 0.00 0.00 0.00 0.00 0.00 0.00 0.00 0.00 0.00 0.00 0.00 0.00 0.01 0.01 0.02 0.03 0.02 0.02
0.07 0.09 0.04 0.01 0.00 0.01 0.00 0.01 0.01 0.02 0.02 0.01 0.00 0.01 0.01 0.01 0.01 0.01 0.01 0.01 0.01 0.01 0.00 0.00 0.00 0.00 0.00 0.00 0.00 0.00 0.00 0.00 0.00 0.00 0.00 0.00 0.00 0.00 0.00 0.00 0.00 0.00 0.01 0.01 0.01 0.02 0.01 0.01 0.01
0.05 0.06 0.04 0.01 0.01 0.00 0.01 0.01 0.02 0.02 0.02 0.01 0.00 0.01 0.01 0.01 0.00 0.01 0.01 0.01 0.01 0.01 0.01 0.00 0.00 0.00 0.00 0.00 0.00 0.00 0.00 0.00 0.00 0.00 0.00 0.00 0.00 0.00 0.00 0.00 0.00 0.00 0.00 0.01 0.02 0.03 0.01 0.01 0.02
0.03 0.04 0.05 0.03 0.01 0.01 0.02 0.02 0.02 0.02 0.02 0.03 0.03 0.01 0.00 0.00 0.00 0.00 0.00 0.01 0.01 0.01 0.01 0.00 0.00 0.01 0.00 0.00 0.00 0.00 0.00 0.00 0.00 0.00 0.00 0.00 0.00 0.00 0.00 0.00 0.00 0.00 0.00 0.00 0.01 0.02 0.02 0.02 0.02
0.01 0.03 0.04 0.03 0.01 0.01 0.02 0.04 0.03 0.01 0.01 0.03 0.07 0.02 0.00 0.00 0.00 0.00 0.00 0.00 0.00 0.01 0.01 0.01 0.01 0.01 0.00 0.00 0.00 0.00 0.00 0.00 0.00 0.00 0.00 0.00 0.00 0.00 0.00 0.00 0.00 0.00 0.00 0.00 0.00 0.01 0.02 0.02 0.02
0.01 0.04 0.06 0.04 0.01 0.01 0.04 0.09 0.04 0.02 0.01 0.02 0.03 0.00 0.00 0.00 0.00 0.00 0.00 0.00 0.00 0.01 0.01 0.01 0.00 0.00 0.01 0.00 0.00 0.00 0.00 0.00 0.00 0.00 0.00 0.00 0.00 0.00 0.00 0.00 0.00 0.00 0.00 0.00 0.00 0.01 0.02 0.04 0.03
0.03 0.04 0.05 0.04 0.02 0.01 0.03 0.08 0.03 0.03 0.02 0.01 0.01 0.00 0.00 0.00 0.00 0.00 0.00 0.00 0.00 0.00 0.00 0.01 0.01 0.01 0.01 0.00 0.00 0.00 0.00 0.00 0.00 0.00 0.00 0.00 0.00 0.00 0.00 0.00 0.00 0.00 0.00 0.00 0.00 0.02 0.03 0.05 0.04
0.02 0.03 0.03 0.03 0.02 0.01 0.04 0.05 0.02 0.02 0.02 0.01 0.01 0.00 0.01 0.02 0.01 0.00 0.00 0.00 0.00 0.00 0.00 0.01 0.01 0.01 0.01 0.00 0.00 0.00 0.00 0.00 0.00 0.00 0.00 0.00 0.00 0.00 0.00 0.00 0.00 0.00 0.01 0.01 0.01 0.01 0.03 0.04 0.05
0.02 0.03 0.04 0.03 0.01 0.02 0.04 0.03 0.02 0.02 0.02 0.01 0.01 0.01 0.01 0.03 0.01 0.00 0.00 0.00 0.00 0.00 0.00 0.01 0.01 0.01 0.01 0.01 0.00 0.00 0.00 0.00 0.00 0.00 0.00 0.00 0.00 0.00 0.00 0.00 0.01 0.01 0.01 0.02 0.02 0.03 0.03 0.05 0.06
0.02 0.03 0.05 0.03 0.01 0.02 0.04 0.03 0.02 0.01 0.01 0.01 0.00 0.00 0.00 0.01 0.01 0.00 0.01 0.00 0.00 0.00 0.01 0.01 0.01 0.01 0.01 0.01 0.00 0.00 0.00 0.00 0.00 0.00 0.00 0.00 0.00 0.00 0.00 0.00 0.01 0.01 0.02 0.01 0.01 0.03 0.04 0.05 0.05
0.03 0.04 0.05 0.03 0.01 0.01 0.03 0.03 0.02 0.00 0.00 0.01 0.00 0.00 0.00 0.00 0.01 0.01 0.01 0.00 0.00 0.00 0.01 0.01 0.01 0.01 0.01 0.01 0.01 0.00 0.00 0.00 0.00 0.00 0.00 0.00 0.00 0.00 0.00 0.00 0.00 0.00 0.01 0.01 0.01 0.02 0.05 0.06 0.05
0.04 0.01 0.02 0.02 0.02 0.02 0.03 0.03 0.01 0.00 0.00 0.00 0.00 0.00 0.00 0.00 0.00 0.01 0.01 0.01 0.00 0.00 0.00 0.01 0.01 0.02 0.02 0.01 0.01 0.00 0.00 0.00 0.00 0.00 0.00 0.00 0.00 0.00 0.00 0.00 0.00 0.01 0.01 0.01 0.01 0.02 0.04 0.05 0.06
0.02 0.01 0.01 0.01 0.02 0.02 0.03 0.02 0.01 0.00 0.00 0.00 0.00 0.00 0.00 0.00 0.00 0.00 0.00 0.01 0.01 0.01 0.01 0.01 0.01 0.02 0.02 0.02 0.01 0.00 0.00 0.00 0.00 0.00 0.00 0.00 0.00 0.00 0.00 0.00 0.01 0.01 0.01 0.01 0.01 0.02 0.03 0.04 0.05
0.01 0.01 0.01 0.01 0.01 0.02 0.02 0.02 0.01 0.00 0.00 0.00 0.00 0.00 0.00 0.00 0.00 0.00 0.00 0.00 0.01 0.01 0.02 0.01 0.01 0.01 0.01 0.01 0.01 0.01 0.00 0.00 0.00 0.00 0.00 0.00 0.00 0.00 0.00 0.00 0.00 0.01 0.01 0.01 0.01 0.01 0.02 0.04 0.05
0.02 0.02 0.03 0.04 0.04 0.02 0.00 0.01 0.01 0.00 0.00 0.00 0.00 0.00 0.00 0.00 0.00 0.00 0.00 0.00 0.00 0.01 0.01 0.01 0.01 0.01 0.02 0.02 0.01 0.01 0.00 0.00 0.00 0.00 0.00 0.00 0.00 0.00 0.00 0.00 0.00 0.01 0.01 0.01 0.02 0.02 0.02 0.03 0.04
0.03 0.05 0.05 0.05 0.03 0.01 0.00 0.00 0.00 0.00 0.00 0.00 0.00 0.00 0.00 0.00 0.00 0.00 0.00 0.00 0.00 0.00 0.00 0.00 0.01 0.01 0.02 0.03 0.02 0.01 0.00 0.00 0.00 0.00 0.00 0.00 0.00 0.00 0.00 0.00 0.00 0.01 0.01 0.01 0.01 0.01 0.02 0.02 0.03
0.02 0.02 0.01 0.01 0.01 0.00 0.00 0.00 0.00 0.00 0.00 0.00 0.00 0.00 0.00 0.00 0.00 0.00 0.00 0.00 0.00 0.00 0.00 0.00 0.01 0.01 0.02 0.03 0.02 0.01 0.00 0.00 0.00 0.00 0.00 0.00 0.00 0.00 0.00 0.00 0.00 0.01 0.01 0.01 0.01 0.01 0.01 0.02 0.03
0.01 0.01 0.00 0.00 0.00 0.00 0.00 0.00 0.00 0.00 0.00 0.00 0.00 0.00 0.00 0.00 0.00 0.01 0.00 0.00 0.00 0.00 0.00 0.00 0.01 0.01 0.02 0.02 0.01 0.01 0.00 0.00 0.00 0.00 0.00 0.00 0.00 0.00 0.00 0.00 0.00 0.00 0.01 0.01 0.01 0.01 0.01 0.01 0.02
0.00 0.00 0.01 0.00 0.00 0.00 0.00 0.00 0.00 0.00 0.00 0.00 0.00 0.00 0.00 0.00 0.00 0.00 0.00 0.00 0.00 0.00 0.00 0.00 0.01 0.01 0.01 0.01 0.01 0.00 0.00 0.00 0.00 0.00 0.00 0.00 0.00 0.00 0.01 0.01 0.00 0.00 0.00 0.01 0.01 0.01 0.01 0.01 0.01
0.00 0.00 0.00 0.00 0.00 0.00 0.00 0.00 0.00 0.00 0.00 0.00 0.00 0.00 0.00 0.00 0.00 0.00 0.01 0.00 0.00 0.00 0.00 0.00 0.01 0.01 0.01 0.01 0.01 0.00 0.00 0.00 0.00 0.00 0.00 0.00 0.00 0.00 0.00 0.00 0.00 0.00 0.00 0.01 0.01 0.01 0.01 0.01 0.01
MSLP
1008.61 1009.18 1009.99 1010.89 1011.73 1012.35 1012.66 1012.60 1012.24 1011.67 1011.08 1010.61 1010.37 1010.40 1010.66 1011.05 1011.46 1011.75 1011.87 1011.79 1011.56 1011.28 1011.04 1010.92 1010.97 1011.15 1011.43 1011.72 1011.95 1012.10 1012.15 1012.13 1012.09 1012.09 1012.16 1012.29 1012.48 1012.68 1012.83 1012.93 1012.94 1012.90 1012.83 1012.75 1012.71 1012.70 1012.71 1012.72 1012.69
1008.93 1009.66 1010.55 1011.43 1012.15 1012.59 1012.66 1012.39 1011.84 1011.17 1010.54 1010.11 1009.95 1010.07 1010.42 1010.88 1011.31 1011.61 1011.70 1011.61 1011.39 1011.15 1010.97 1010.94 1011.07 1011.34 1011.68 1012.02 1012.27 1012.42 1012.46 1012.42 1012.37 1012.36 1012.42 1012.55 1012.72 1012.88 1013.01 1013.06 1013.03 1012.95 1012.85 1012.76 1012.71 1012.70 1012.71 1012.71 1012.68
1009.37 1010.22 1011.13 1011.93 1012.50 1012.72 1012.56 1012.07 1011.37 1010.61 1009.98 1009.61 1009.54 1009.76 1010.19 1010.69 1011.14 1011.42 1011.50 1011.40 1011.20 1011.01 1010.91 1010.97 1011.20 1011.55 1011.96 1012.33 1012.60 1012.74 1012.76 1012.70 1012.64 1012.61 1012.65 1012.75 1012.89 1013.03 1013.11 1013.11 1013.05 1012.93 1012.81 1012.71 1012.66 1012.65 1012.67 1012.68 1012.65
1009.90 1010.82 1011.70 1012.39 1012.77 1012.77 1012.39 1011.72 1010.91 1010.12 1009.52 1009.22 1009.25 1009.56 1010.05 1010.58 1011.02 1011.27 1011.32 1011.22 1011.05 1010.90 1010.89 1011.04 1011.36 1011.79 1012.24 1012.63 1012.90 1013.03 1013.02 1012.94 1012.85 1012.80 1012.82 1012.90 1013.01 1013.10 1013.14 1013.11 1013.01 1012.87 1012.74 1012.64 1012.60 1012.60 1012.64 1012.66 1012.64
1010.47 1011.40 1012.20 1012.75 1012.93 1012.73 1012.18 1011.39 1010.52 1009.76 1009.23 1009.03 1009.16 1009.55 1010.08 1010.60 1011.01 1011.22 1011.24 1011.12 1010.97 1010.88 1010.93 1011.16 1011.55 1012.04 1012.51 1012.91 1013.16 1013.25 1013.22 1013.11 1013.00 1012.93 1012.93 1012.98 1013.06 1013.13 1013.14 1013.08 1012.95 1012.80 1012.66 1012.57 1012.53 1012.56 1012.60 1012.64 1012.64
1011.01 1011.88 1012.57 1012.95 1012.96 1012.60 1011.94 1011.10 1010.25 1009.56 1009.15 1009.07 1009.30 1009.74 1010.28 1010.78 1011.13 1011.28 1011.25 1011.12 1010.97 1010.92 1011.03 1011.32 1011.75 1012.25 1012.73 1013.09 1013.31 1013.37 1013.30 1013.17 1013.04 1012.96 1012.96 1013.01 1013.07 1013.12 1013.11 1013.03 1012.89 1012.73 1012.59 1012.50 1012.47 1012.50 1012.56 1012.61 1012.61
1011.41 1012.18 1012.72 1012.95 1012.81 1012.35 1011.64 1010.83 1010.07 1009.51 1009.24 1009.28 1009.60 1010.08 1010.61 1011.06 1011.33 1011.42 1011.34 1011.18 1011.04 1011.02 1011.16 1011.47 1011.91 1012.39 1012.84 1013.16 1013.33 1013.35 1013.26 1013.11 1012.98 1012.92 1012.92 1012.97 1013.05 1013.09 1013.08 1012.99 1012.84 1012.67 1012.53 1012.43 1012.39 1012.42 1012.47 1012.52 1012.54
1011.61 1012.24 1012.63 1012.71 1012.47 1011.96 1011.27 1010.55 1009.93 1009.53 1009.41 1009.58 1009.97 1010.47 1010.96 1011.35 1011.55 1011.57 1011.45 1011.27 1011.14 1011.13 1011.27 1011.58 1012.00 1012.44 1012.83 1013.10 1013.21 1013.20 1013.09 1012.95 1012.84 1012.80 1012.83 1012.91 1012.99 1013.05 1013.04 1012.95 1012.80 1012.62 1012.46 1012.34 1012.29 1012.29 1012.33 1012.38 1012.39
1011.58 1012.06 1012.30 1012.26 1011.95 1011.45 1010.83 1010.24 1009.78 1009.55 1009.59 1009.85 1010.29 1010.78 1011.23 1011.55 1011.70 1011.66 1011.52 1011.34 1011.22 1011.21 1011.36 1011.65 1012.02 1012.40 1012.72 1012.92 1012.99 1012.94 1012.83 1012.71 1012.64 1012.64 1012.71 1012.82 1012.93 1013.00 1013.00 1012.91 1012.76 1012.57 1012.39 1012.25 1012.17 1012.14 1012.14 1012.16 1012.17
1011.36 1011.69 1011.79 1011.66 1011.33 1010.86 1010.35 1009.90 1009.61 1009.53 1009.68 1010.01 1010.46 1010.93 1011.34 1011.60 1011.70 1011.65 1011.50 1011.35 1011.25 1011.27 1011.41 1011.67 1011.99 1012.29 1012.54 1012.68 1012.71 1012.65 1012.55 1012.47 1012.44 1012.48 1012.59 1012.74 1012.87 1012.96 1012.97 1012.88 1012.73 1012.54 1012.34 1012.17 1012.05 1011.97 1011.94 1011.92 1011.91
1011.05 1011.24 1011.23 1011.03 1010.70 1010.29 1009.88 1009.57 1009.41 1009.45 1009.67 1010.02 1010.46 1010.88 1011.23 1011.45 1011.53 1011.49 1011.39 1011.29 1011.24 1011.29 1011.44 1011.67 1011.93 1012.17 1012.35 1012.44 1012.44 1012.38 1012.31 1012.26 1012.28 1012.37 1012.51 1012.68 1012.83 1012.93 1012.95 1012.87 1012.72 1012.53 1012.32 1012.13 1011.97 1011.85 1011.76 1011.70 1011.65
1010.77 1010.84 1010.74 1010.51 1010.18 1009.83 1009.52 1009.31 1009.24 1009.33 1009.56 1009.90 1010.27 1010.63 1010.92 1011.12 1011.21 1011.22 1011.19 1011.17 1011.20 1011.30 1011.47 1011.68 1011.90 1012.08 1012.21 1012.26 1012.25 1012.21 1012.16 1012.16 1012.21 1012.33 1012.49 1012.67 1012.83 1012.92 1012.94 1012.88 1012.75 1012.56 1012.35 1012.15 1011.97 1011.80 1011.67 1011.56 1011.47
1010.65 1010.63 1010.47 1010.20 1009.89 1009.58 1009.33 1009.18 1009.15 1009.24 1009.43 1009.69 1009.98 1010.26 1010.50 1010.68 1010.80 1010.88 1010.95 1011.03 1011.15 1011.31 1011.50 1011.71 1011.90 1012.05 1012.15 1012.19 1012.18 1012.16 1012.15 1012.18 1012.25 1012.38 1012.54 1012.71 1012.85 1012.93 1012.96 1012.91 1012.80 1012.64 1012.46 1012.26 1012.07 1011.88 1011.71 1011.55 1011.41
1010.77 1010.68 1010.47 1010.19 1009.89 1009.61 1009.39 1009.25 1009.20 1009.24 1009.35 1009.50 1009.69 1009.87 1010.05 1010.22 1010.38 1010.54 1010.71 1010.89 1011.10 1011.32 1011.55 1011.76 1011.94 1012.07 1012.16 1012.20 1012.22 1012.23 1012.26 1012.31 1012.40 1012.52 1012.65 1012.78 1012.89 1012.96 1012.98 1012.95 1012.87 1012.76 1012.62 1012.45 1012.27 1012.08 1011.87 1011.68 1011.49
1011.12 1010.98 1010.74 1010.45 1010.16 1009.90 1009.69 1009.54 1009.44 1009.40 1009.40 1009.43 1009.49 1009.58 1009.71 1009.86 1010.05 1010.27 1010.51 1010.78 1011.06 1011.33 1011.58 1011.80 1011.97 1012.11 1012.21 1012.28 1012.33 1012.39 1012.45 1012.52 1012.61 1012.70 1012.79 1012.87 1012.93 1012.98 1012.99 1012.99 1012.96 1012.90 1012.81 1012.70 1012.54 1012.36 1012.15 1011.92 1011.69
1011.60 1011.43 1011.18 1010.91 1010.64 1010.40 1010.19 1010.02 1009.87 1009.74 1009.62 1009.53 1009.48 1009.48 1009.53 1009.66 1009.86 1010.11 1010.40 1010.71 1011.02 1011.31 1011.57 1011.78 1011.96 1012.11 1012.24 1012.35 1012.46 1012.56 1012.67 1012.76 1012.83 1012.89 1012.93 1012.95 1012.97 1012.98 1012.99 1013.00 1013.02 1013.02 1013.00 1012.94 1012.83 1012.67 1012.46 1012.21 1011.96
1012.10 1011.92 1011.69 1011.44 1011.21 1011.01 1010.82 1010.64 1010.45 1010.25 1010.04 1009.85 1009.70 1009.60 1009.60 1009.68 1009.85 1010.09 1010.38 1010.69 1010.99 1011.26 1011.49 1011.69 1011.87 1012.03 1012.20 1012.37 1012.54 1012.70 1012.85 1012.97 1013.04 1013.06 1013.05 1013.02 1012.98 1012.95 1012.96 1012.99 1013.04 1013.10 1013.14 1013.14 1013.07 1012.94 1012.74 1012.50 1012.23
1012.45 1012.30 1012.11 1011.93 1011.77 1011.63 1011.49 1011.33 1011.13 1010.90 1010.63 1010.37 1010.14 1009.97 1009.90 1009.92 1010.04 1010.24 1010.48 1010.73 1010.97 1011.18 1011.36 1011.53 1011.69 1011.87 1012.07 1012.30 1012.54 1012.77 1012.97 1013.11 1013.18 1013.19 1013.13 1013.05 1012.97 1012.91 1012.90 1012.94 1013.03 1013.13 1013.21 1013.25 1013.23 1013.13 1012.95 1012.72 1012.46
1012.58 1012.47 1012.37 1012.29 1012.23 1012.19 1012.13 1012.03 1011.87 1011.64 1011.36 1011.06 1010.78 1010.56 1010.42 1010.37 1010.42 1010.53 1010.68 1010.84 1010.99 1011.11 1011.22 1011.33 1011.47 1011.65 1011.89 1012.17 1012.47 1012.76 1013.02 1013.19 1013.27 1013.26 1013.18 1013.06 1012.94 1012.86 1012.83 1012.87 1012.97 1013.09 1013.20 1013.27 1013.27 1013.19 1013.04 1012.83 1012.59
1012.46 1012.44 1012.44 1012.49 1012.57 1012.66 1012.72 1012.72 1012.63 1012.44 1012.18 1011.87 1011.57 1011.31 1011.11 1010.99 1010.96 1010.97 1011.01 1011.06 1011.09 1011.10 1011.12 1011.17 1011.27 1011.44 1011.69 1012.01 1012.36 1012.71 1013.00 1013.21 1013.31 1013.30 1013.20 1013.06 1012.92 1012.81 1012.77 1012.80 1012.89 1013.01 1013.12 1013.20 1013.21 1013.15 1013.01 1012.83 1012.62
1012.15 1012.24 1012.38 1012.59 1012.83 1013.07 1013.27 1013.38 1013.38 1013.26 1013.04 1012.76 1012.45 1012.16 1011.92 1011.74 1011.62 1011.54 1011.48 1011.41 1011.32 1011.23 1011.16 1011.13 1011.18 1011.32 1011.57 1011.89 1012.27 1012.64 1012.97 1013.20 1013.31 1013.31 1013.21 1013.07 1012.91 1012.78 1012.72 1012.73 1012.80 1012.90 1013.00 1013.06 1013.07 1013.01 1012.89 1012.73 1012.56
1011.78 1012.00 1012.30 1012.68 1013.09 1013.48 1013.82 1014.05 1014.14 1014.09 1013.92 1013.66 1013.36 1013.06 1012.79 1012.56 1012.38 1012.22 1012.07 1011.91 1011.73 1011.55 1011.39 1011.28 1011.27 1011.37 1011.58 1011.88 1012.25 1012.62 1012.94 1013.18 1013.30 1013.30 1013.21 1013.07 1012.90 1012.77 1012.68 1012.67 1012.71 1012.77 1012.84 1012.88 1012.88 1012.81 1012.70 1012.57 1012.44
1011.49 1011.85 1012.31 1012.84 1013.40 1013.94 1014.40 1014.73 1014.90 1014.91 1014.77 1014.54 1014.24 1013.94 1013.66 1013.41 1013.19 1012.99 1012.78 1012.56 1012.32 1012.07 1011.84 1011.67 1011.59 1011.62 1011.77 1012.02 1012.33 1012.66 1012.95 1013.17 1013.28 1013.29 1013.20 1013.06 1012.89 1012.75 1012.65 1012.60 1012.61 1012.64 1012.67 1012.68 1012.66 1012.59 1012.49 1012.38 1012.27
1011.37 1011.86 1012.45 1013.12 1013.82 1014.47 1015.01 1015.41 1015.63 1015.67 1015.56 1015.34 1015.06 1014.76 1014.48 1014.22 1014.00 1013.79 1013.57 1013.33 1013.06 1012.78 1012.50 1012.27 1012.12 1012.07 1012.13 1012.29 1012.52 1012.78 1013.01 1013.18 1013.27 1013.26 1013.17 1013.02 1012.86 1012.70 1012.58 1012.51 1012.48 1012.48 1012.48 1012.46 1012.42 1012.34 1012.25 1012.15 1012.08
1011.44 1012.03 1012.74 1013.51 1014.29 1015.01 1015.61 1016.04 1016.29 1016.34 1016.24 1016.03 1015.75 1015.46 1015.19 1014.96 1014.76 1014.57 1014.38 1014.15 1013.90 1013.61 1013.31 1013.04 1012.82 1012.68 1012.64 1012.69 1012.81 1012.96 1013.11 1013.22 1013.26 1013.23 1013.12 1012.97 1012.80 1012.63 1012.49 1012.39 1012.33 1012.29 1012.26 1012.21 1012.15 1012.08 1011.99 1011.91 1011.84
1011.64 1012.31 1013.08 1013.91 1014.73 1015.48 1016.10 1016.54 1016.79 1016.84 1016.74 1016.53 1016.27 1016.01 1015.77 1015.57 1015.42 1015.28 1015.14 1014.97 1014.75 1014.48 1014.18 1013.88 1013.60 1013.39 1013.24 1013.17 1013.17 1013.21 1013.26 1013.29 1013.28 1013.20 1013.08 1012.91 1012.72 1012.54 1012.38 1012.24 1012.14 1012.06 1012.00 1011.93 1011.86 1011.77 1011.69 1011.61 1011.56
1011.86 1012.56 1013.36 1014.20 1015.02 1015.77 1016.37 1016.80 1017.04 1017.10 1017.00 1016.82 1016.58 1016.36 1016.17 1016.03 1015.93 1015.87 1015.80 1015.69 1015.52 1015.30 1015.02 1014.70 1014.39 1014.10 1013.87 1013.69 1013.58 1013.52 1013.47 1013.42 1013.35 1013.24 1013.08 1012.89 1012.68 1012.47 1012.27 1012.09 1011.95 1011.83 1011.72 1011.62 1011.52 1011.43 1011.34 1011.26 1011.20
1011.97 1012.66 1013.44 1014.25 1015.04 1015.75 1016.33 1016.74 1016.98 1017.05 1016.99 1016.84 1016.66 1016.49 1016.37 1016.30 1016.28 1016.29 1016.29 1016.25 1016.16 1015.98 1015.74 1015.43 1015.10 1014.78 1014.48 1014.23 1014.03 1013.88 1013.76 1013.64 1013.52 1013.36 1013.18 1012.96 1012.71 1012.46 1012.21 1011.99 1011.78 1011.60 1011.45 1011.30 1011.17 1011.05 1010.94 1010.84 1010.77
1011.89 1012.53 1013.24 1013.97 1014.70 1015.35 1015.90 1016.31 1016.56 1016.67 1016.67 1016.60 1016.50 1016.42 1016.37 1016.38 1016.44 1016.52 1016.59 1016.63 1016.60 1016.48 1016.28 1016.01 1015.70 1015.37 1015.05 1014.76 1014.52 1014.31 1014.14 1013.99 1013.82 1013.64 1013.42 1013.16 1012.88 1012.58 1012.28 1011.98 1011.70 1011.45 1011.23 1011.02 1010.84 1010.67 1010.51 1010.38 1010.27
1011.63 1012.16 1012.76 1013.39 1014.02 1014.61 1015.12 1015.53 1015.82 1016.00 1016.09 1016.13 1016.13 1016.15 1016.20 1016.30 1016.43 1016.58 1016.71 1016.81 1016.84 1016.79 1016.65 1016.44 1016.16 1015.86 1015.56 1015.28 1015.03 1014.81 1014.63 1014.45 1014.27 1014.06 1013.82 1013.53 1013.20 1012.85 1012.48 1012.10 1011.74 1011.41 1011.10 1010.81 1010.55 1010.32 1010.10 1009.91 1009.74
Thickness
5794 5796 5795 5784 5765 5755 5754 5766 5777 5779 5785 5796 5802 5799 5787 5779 5769 5757 5780 5794 5793 5788 5783 5779 5777 5775 5774 5772 5770 5768 5766 5765 5763 5761 5760 5758 5757 5756 5755 5754 5753 5753 5752 5752 5751 5751 5751 5751 5752
5795 5796 5787 5773 5755 5745 5751 5768 5771 5779 5790 5800 5802 5798 5788 5781 5784 5780 5784 5791 5791 5786 5781 5777 5774 5772 5771 5769 5767 5766 5764 5762 5760 5759 5757 5756 5755 5754 5753 5752 5751 5750 5749 5749 5748 5748 5748 5748 5748
5794 5793 5775 5763 5754 5750 5753 5769 5775 5787 5798 5798 5795 5793 5785 5779 5784 5782 5787 5791 5789 5783 5778 5773 5771 5769 5768 5766 5765 5763 5761 5760 5758 5757 5755 5754 5753 5752 5750 5750 5748 5747 5747 5746 5746 5745 5745 5745 5746
5788 5780 5772 5759 5754 5766 5772 5776 5784 5786 5793 5799 5795 5783 5781 5790 5788 5787 5791 5790 5786 5781 5776 5771 5769 5767 5765 5763 5762 5760 5759 5757 5756 5754 5753 5752 5751 5749 5748 5747 5746 5745 5744 5744 5743 5742 5742 5742 5743
5782 5768 5756 5753 5760 5773 5782 5787 5787 5783 5785 5790 5787 5772 5769 5785 5791 5790 5790 5789 5784 5779 5775 5770 5767 5765 5763 5761 5759 5758 5756 5755 5754 5752 5751 5749 5748 5747 5746 5745 5744 5743 5742 5741 5741 5740 5740 5740 5740
5766 5762 5747 5744 5757 5772 5782 5789 5787 5783 5784 5788 5784 5772 5768 5784 5786 5786 5788 5786 5784 5780 5774 5769 5766 5764 5762 5760 5758 5756 5754 5753 5751 5750 5749 5748 5747 5746 5744 5743 5741 5740 5739 5739 5738 5738 5738 5738 5738
5758 5753 5747 5751 5753 5763 5777 5790 5784 5780 5778 5783 5787 5771 5767 5777 5783 5786 5785 5783 5782 5779 5775 5770 5766 5763 5760 5758 5756 5754 5753 5751 5750 5748 5747 5747 5745 5744 5742 5741 5739 5738 5737 5737 5736 5735 5735 5736 5736
5765 5754 5748 5752 5750 5756 5779 5787 5788 5782 5778 5792 5792 5771 5764 5775 5784 5784 5782 5780 5779 5778 5775 5772 5769 5765 5761 5758 5756 5754 5752 5751 5749 5748 5747 5746 5744 5743 5741 5739 5738 5736 5736 5735 5734 5734 5734 5734 5734
5767 5745 5738 5747 5751 5759 5778 5779 5784 5791 5786 5787 5789 5784 5780 5783 5783 5778 5775 5774 5773 5774 5773 5771 5769 5766 5763 5761 5757 5754 5752 5750 5749 5747 5746 5745 5744 5744 5742 5739 5737 5735 5734 5734 5733 5732 5732 5732 5733
5757 5736 5742 5760 5768 5769 5776 5778 5781 5780 5775 5775 5777 5781 5783 5781 5778 5773 5770 5768 5768 5769 5771 5771 5769 5766 5764 5762 5758 5755 5753 5751 5749 5748 5746 5745 5744 5743 5741 5738 5736 5734 5733 5732 5731 5731 5731 5732 5732
5756 5746 5755 5765 5774 5777 5775 5777 5783 5774 5765 5770 5770 5772 5777 5776 5775 5773 5772 5771 5770 5770 5770 5770 5769 5767 5764 5760 5757 5755 5753 5751 5749 5747 5746 5744 5743 5741 5739 5737 5735 5733 5732 5731 5730 5730 5730 5731 5732
5755 5755 5761 5767 5775 5775 5774 5776 5774 5771 5770 5780 5781 5778 5776 5774 5772 5772 5772 5771 5770 5768 5768 5768 5768 5766 5763 5759 5757 5755 5752 5749 5748 5746 5744 5742 5740 5738 5737 5735 5733 5732 5730 5729 5728 5728 5729 5729 5729
5752 5755 5763 5769 5773 5775 5774 5771 5770 5769 5778 5783 5781 5777 5774 5773 5773 5774 5774 5773 5770 5766 5765 5766 5766 5764 5761 5758 5755 5753 5750 5748 5746 5744 5742 5740 5737 5735 5734 5732 5730 5729 5727 5726 5724 5724 5725 5725 5726
5755 5758 5761 5766 5769 5771 5766 5767 5768 5768 5778 5777 5775 5772 5773 5772 5772 5772 5772 5770 5768 5765 5764 5764 5763 5761 5759 5756 5754 5751 5749 5747 5745 5741 5740 5738 5736 5733 5731 5729 5727 5725 5724 5723 5721 5721 5721 5721 5722
5759 5751 5753 5760 5765 5767 5764 5752 5758 5770 5774 5769 5769 5769 5770 5771 5772 5771 5770 5770 5768 5766 5765 5762 5761 5759 5757 5754 5752 5750 5748 5746 5743 5740 5738 5736 5734 5732 5729 5725 5723 5721 5720 5719 5718 5717 5717 5717 5718
5751 5743 5736 5751 5761 5763 5751 5732 5756 5770 5767 5762 5764 5765 5765 5768 5771 5772 5773 5771 5769 5766 5763 5761 5760 5757 5754 5751 5749 5748 5746 5743 5741 5738 5735 5733 5732 5729 5726 5722 5719 5718 5717 5715 5714 5712 5711 5711 5712
5737 5730 5731 5743 5760 5760 5748 5733 5752 5766 5763 5760 5761 5761 5762 5763 5768 5771 5772 5771 5769 5766 5762 5759 5757 5754 5751 5749 5748 5745 5743 5741 5739 5736 5732 5730 5728 5725 5723 5719 5717 5715 5713 5711 5710 5708 5707 5705 5707
5728 5732 5735 5740 5754 5755 5744 5739 5750 5760 5760 5758 5759 5759 5760 5760 5764 5769 5770 5770 5768 5766 5762 5758 5755 5753 5750 5747 5745 5742 5740 5739 5737 5734 5731 5728 5725 5723 5720 5718 5715 5713 5710 5707 5706 5704 5704 5703 5704
5744 5738 5736 5745 5758 5751 5741 5740 5745 5753 5754 5753 5755 5757 5758 5760 5766 5769 5768 5767 5765 5763 5760 5756 5753 5751 5747 5743 5740 5737 5735 5735 5734 5732 5729 5726 5724 5721 5719 5716 5713 5711 5707 5705 5703 5701 5700 5700 5702
5742 5736 5735 5745 5756 5749 5740 5738 5746 5750 5750 5751 5753 5754 5756 5757 5760 5761 5763 5762 5761 5759 5757 5755 5752 5750 5746 5742 5741 5738 5736 5734 5733 5731 5728 5726 5723 5720 5718 5714 5712 5710 5706 5703 5701 5699 5696 5696 5698
5738 5735 5737 5738 5747 5749 5738 5728 5736 5745 5750 5751 5752 5754 5755 5754 5754 5755 5756 5757 5757 5755 5754 5754 5751 5749 5746 5743 5740 5737 5734 5732 5730 5728 5726 5725 5723 5719 5716 5714 5711 5708 5705 5701 5699 5697 5694 5691 5693
5730 5748 5748 5744 5735 5726 5730 5707 5725 5736 5737 5741 5744 5747 5749 5750 5751 5750 5751 5751 5752 5753 5754 5753 5750 5749 5746 5742 5737 5733 5728 5725 5726 5726 5725 5725 5722 5719 5716 5713 5710 5707 5704 5701 5699 5698 5694 5691 5688
5741 5755 5753 5747 5736 5727 5728 5714 5717 5734 5727 5732 5738 5742 5745 5747 5748 5747 5748 5748 5749 5749 5749 5749 5748 5745 5743 5740 5736 5732 5728 5727 5727 5726 5724 5723 5721 5719 5716 5713 5710 5706 5703 5700 5698 5696 5693 5691 5688
5753 5750 5748 5745 5734 5712 5723 5715 5708 5724 5726 5731 5736 5739 5741 5743 5744 5744 5745 5745 5745 5745 5744 5743 5741 5739 5739 5737 5734 5730 5727 5725 5723 5722 5720 5719 5719 5717 5715 5713 5709 5706 5703 5700 5697 5695 5693 5691 5689
5746 5731 5713 5705 5705 5709 5735 5720 5710 5729 5736 5735 5734 5736 5738 5739 5739 5738 5737 5737 5737 5738 5737 5737 5736 5734 5734 5733 5731 5730 5727 5725 5722 5720 5719 5717 5716 5714 5713 5712 5708 5705 5703 5700 5697 5695 5692 5691 5688
5735 5726 5705 5696 5702 5719 5735 5714 5716 5735 5738 5738 5737 5735 5735 5735 5735 5734 5733 5733 5733 5733 5733 5733 5732 5730 5730 5730 5729 5729 5727 5724 5722 5721 5719 5717 5715 5714 5713 5711 5708 5706 5703 5700 5697 5693 5692 5691 5689
5733 5728 5736 5727 5726 5722 5718 5714 5721 5732 5731 5731 5730 5729 5728 5729 5729 5729 5729 5730 5730 5729 5729 5730 5728 5727 5727 5727 5727 5726 5725 5723 5721 5720 5718 5716 5715 5714 5712 5710 5708 5706 5703 5699 5696 5692 5690 5689 5688
5751 5750 5744 5731 5716 5708 5711 5709 5708 5716 5720 5723 5724 5723 5724 5726 5726 5725 5725 5726 5726 5727 5727 5727 5726 5724 5724 5724 5724 5723 5722 5720 5719 5717 5715 5714 5712 5711 5709 5708 5707 5705 5702 5699 5696 5692 5690 5688 5687
5750 5750 5747 5745 5742 5719 5702 5704 5732 5725 5724 5722 5722 5723 5723 5722 5722 5722 5722 5723 5723 5724 5723 5722 5723 5722 5720 5720 5720 5719 5718 5717 5716 5713 5712 5711 5710 5709 5707 5706 5704 5703 5701 5698 5695 5692 5689 5687 5685
5760 5756 5750 5732 5733 5735 5718 5703 5737 5732 5729 5726 5722 5722 5722 5721 5721 5720 5719 5719 5718 5718 5719 5718 5718 5718 5717 5717 5716 5714 5713 5712 5710 5709 5708 5708 5707 5706 5705 5704 5702 5700 5698 5697 5694 5691 5689 5686 5684